When you browse on this site, cookies collect data to enhance your experience and personalize the content and advertising you see.
Visit our Privacy Policy to learn more. By continuing to use the site, you agree to this use of cookies and data.

Stündliche Wetter Saurimo

Heute, 10 Juli, Freitag

Zeit Temperatur Niederschläge Wind Luftdruck Luftfeuchtigkeit
00:00 +20°C° 0 mm 1 m/S 670 mmHg 39%
01:00 +19°C° 0 mm 1 m/S 670 mmHg 41%
02:00 +19°C° 0 mm 1 m/S 670 mmHg 41%
03:00 +18°C° 0 mm 1 m/S 669 mmHg 41%
04:00 +18°C° 0 mm 1 m/S 669 mmHg 42%
05:00 +18°C° 0 mm 1 m/S 670 mmHg 41%
06:00 +19°C° 0 mm 1 m/S 670 mmHg 41%
07:00 +19°C° 0 mm 2 m/S 671 mmHg 40%
08:00 +24°C° 0 mm 2 m/S 672 mmHg 33%
09:00 +28°C° 0 mm 2 m/S 672 mmHg 27%
10:00 +33°C° 0 mm 3 m/S 673 mmHg 21%
11:00 +34°C° 0 mm 2 m/S 673 mmHg 18%
12:00 +36°C° 0 mm 2 m/S 672 mmHg 16%
13:00 +37°C° 0 mm 1 m/S 672 mmHg 14%
14:00 +37°C° 0 mm 2 m/S 671 mmHg 14%
15:00 +36°C° 0 mm 2 m/S 670 mmHg 15%
16:00 +35°C° 0 mm 2 m/S 670 mmHg 15%
17:00 +31°C° 0 mm 2 m/S 669 mmHg 18%
18:00 +28°C° 0 mm 2 m/S 669 mmHg 21%
19:00 +25°C° 0 mm 1 m/S 669 mmHg 25%
20:00 +24°C° 0 mm 1 m/S 669 mmHg 27%
21:00 +23°C° 0 mm 2 m/S 670 mmHg 29%
22:00 +21°C° 0 mm 2 m/S 670 mmHg 30%
23:00 +22°C° 0 mm 1 m/S 670 mmHg 31%

Morgen, 11 Juli, Samstag

Zeit Temperatur Niederschläge Wind Luftdruck Luftfeuchtigkeit
00:00 +21°C° 0 mm 1 m/S 669 mmHg 32%
01:00 +21°C° 0 mm 1 m/S 669 mmHg 33%
02:00 +20°C° 0 mm 1 m/S 669 mmHg 35%
03:00 +19°C° 0 mm 1 m/S 669 mmHg 36%
04:00 +19°C° 0 mm 1 m/S 669 mmHg 38%
05:00 +18°C° 0 mm 2 m/S 669 mmHg 37%
06:00 +19°C° 0 mm 2 m/S 670 mmHg 37%
07:00 +19°C° 0 mm 2 m/S 671 mmHg 36%
08:00 +24°C° 0 mm 2 m/S 671 mmHg 30%
09:00 +28°C° 0 mm 3 m/S 672 mmHg 25%
10:00 +33°C° 0 mm 3 m/S 673 mmHg 19%
11:00 +35°C° 0 mm 3 m/S 672 mmHg 17%
12:00 +36°C° 0 mm 3 m/S 672 mmHg 15%
13:00 +38°C° 0 mm 2 m/S 671 mmHg 13%
14:00 +37°C° 0 mm 2 m/S 671 mmHg 13%
15:00 +37°C° 0 mm 2 m/S 670 mmHg 13%
16:00 +36°C° 0 mm 2 m/S 670 mmHg 14%
17:00 +32°C° 0 mm 2 m/S 670 mmHg 18%
18:00 +29°C° 0 mm 2 m/S 669 mmHg 21%
19:00 +26°C° 0 mm 1 m/S 669 mmHg 25%
20:00 +25°C° 0 mm 1 m/S 669 mmHg 26%
21:00 +24°C° 0 mm 2 m/S 669 mmHg 28%
22:00 +23°C° 0 mm 2 m/S 670 mmHg 29%
23:00 +21°C° 0 mm 2 m/S 670 mmHg 31%

übermorgen, 12 Juli, Sonntag

Zeit Temperatur Niederschläge Wind Luftdruck Luftfeuchtigkeit
00:00 +21°C° 0 mm 2 m/S 670 mmHg 32%
01:00 +20°C° 0 mm 2 m/S 670 mmHg 34%
02:00 +20°C° 0 mm 2 m/S 670 mmHg 33%
03:00 +20°C° 0 mm 2 m/S 670 mmHg 33%
04:00 +20°C° 0 mm 2 m/S 670 mmHg 33%
05:00 +21°C° 0 mm 2 m/S 670 mmHg 31%
06:00 +21°C° 0 mm 2 m/S 671 mmHg 30%
07:00 +22°C° 0 mm 3 m/S 672 mmHg 29%
08:00 +25°C° 0 mm 3 m/S 672 mmHg 26%
09:00 +28°C° 0 mm 3 m/S 673 mmHg 23%
10:00 +32°C° 0 mm 4 m/S 673 mmHg 20%
11:00 +33°C° 0 mm 4 m/S 673 mmHg 19%
12:00 +35°C° 0 mm 3 m/S 672 mmHg 18%
13:00 +36°C° 0 mm 3 m/S 672 mmHg 18%
14:00 +36°C° 0 mm 3 m/S 671 mmHg 18%
15:00 +36°C° 0 mm 3 m/S 671 mmHg 19%
16:00 +35°C° 0 mm 3 m/S 670 mmHg 20%
17:00 +31°C° 0 mm 2 m/S 670 mmHg 24%
18:00 +29°C° 0 mm 1 m/S 670 mmHg 28%
19:00 +26°C° 0 mm 1 m/S 670 mmHg 33%
20:00 +25°C° 0 mm 1 m/S 670 mmHg 35%
21:00 +24°C° 0 mm 1 m/S 670 mmHg 37%
22:00 +23°C° 0 mm 1 m/S 670 mmHg 39%
23:00 +23°C° 0 mm 1 m/S 670 mmHg 38%

13 Juli, Montag

Zeit Temperatur Niederschläge Wind Luftdruck Luftfeuchtigkeit
00:00 +23°C° 0 mm 2 m/S 670 mmHg 37%
01:00 +23°C° 0 mm 2 m/S 670 mmHg 35%
02:00 +23°C° 0 mm 2 m/S 670 mmHg 34%
03:00 +22°C° 0 mm 3 m/S 670 mmHg 33%
04:00 +22°C° 0 mm 3 m/S 670 mmHg 31%
05:00 +21°C° 0 mm 3 m/S 670 mmHg 31%
06:00 +21°C° 0 mm 4 m/S 670 mmHg 30%
07:00 +21°C° 0 mm 4 m/S 671 mmHg 29%
08:00 +25°C° 0 mm 4 m/S 671 mmHg 26%
09:00 +28°C° 0 mm 4 m/S 672 mmHg 22%
10:00 +30°C° 0 mm 4 m/S 672 mmHg 19%
11:00 +33°C° 0 mm 4 m/S 672 mmHg 19%
12:00 +34°C° 0 mm 4 m/S 671 mmHg 18%
13:00 +36°C° 0 mm 3 m/S 671 mmHg 18%
14:00 +35°C° 0 mm 3 m/S 670 mmHg 18%
15:00 +35°C° 0 mm 3 m/S 670 mmHg 18%
16:00 +35°C° 0 mm 2 m/S 669 mmHg 17%
17:00 +31°C° 0 mm 2 m/S 669 mmHg 21%
18:00 +28°C° 0 mm 2 m/S 669 mmHg 26%
19:00 +25°C° 0 mm 2 m/S 669 mmHg 30%
20:00 +24°C° 0 mm 2 m/S 669 mmHg 31%
21:00 +23°C° 0 mm 2 m/S 669 mmHg 32%
22:00 +21°C° 0 mm 2 m/S 669 mmHg 34%
23:00 +21°C° 0 mm 2 m/S 669 mmHg 34%

14 Juli, Dienstag

Zeit Temperatur Niederschläge Wind Luftdruck Luftfeuchtigkeit
00:00 +21°C° 0 mm 2 m/S 669 mmHg 35%
01:00 +20°C° 0 mm 2 m/S 669 mmHg 35%
02:00 +20°C° 0 mm 2 m/S 669 mmHg 34%
03:00 +20°C° 0 mm 2 m/S 669 mmHg 34%
04:00 +20°C° 0 mm 2 m/S 670 mmHg 33%
05:00 +20°C° 0 mm 3 m/S 670 mmHg 33%
06:00 +20°C° 0 mm 3 m/S 670 mmHg 34%
07:00 +20°C° 0 mm 3 m/S 671 mmHg 34%
08:00 +23°C° 0 mm 4 m/S 671 mmHg 28%
09:00 +27°C° 0 mm 4 m/S 672 mmHg 23%
10:00 +30°C° 0 mm 5 m/S 673 mmHg 18%
11:00 +32°C° 0 mm 4 m/S 672 mmHg 17%
12:00 +34°C° 0 mm 4 m/S 672 mmHg 16%
13:00 +35°C° 0 mm 4 m/S 671 mmHg 15%
14:00 +34°C° 0 mm 3 m/S 670 mmHg 15%
15:00 +34°C° 0 mm 3 m/S 670 mmHg 15%
16:00 +34°C° 0 mm 3 m/S 669 mmHg 15%
17:00 +30°C° 0 mm 2 m/S 669 mmHg 18%
18:00 +27°C° 0 mm 2 m/S 669 mmHg 21%
19:00 +24°C° 0 mm 1 m/S 669 mmHg 24%
20:00 +23°C° 0 mm 1 m/S 669 mmHg 26%
21:00 +22°C° 0 mm 1 m/S 670 mmHg 28%
22:00 +21°C° 0 mm 1 m/S 670 mmHg 30%
23:00 +19°C° 0 mm 2 m/S 670 mmHg 30%

15 Juli, Mittwoch

Zeit Temperatur Niederschläge Wind Luftdruck Luftfeuchtigkeit
00:00 +18°C° 0 mm 2 m/S 670 mmHg 30%
01:00 +18°C° 0 mm 2 m/S 670 mmHg 30%
02:00 +17°C° 0 mm 2 m/S 670 mmHg 32%
03:00 +17°C° 0 mm 2 m/S 670 mmHg 33%
04:00 +16°C° 0 mm 2 m/S 670 mmHg 34%
05:00 +17°C° 0 mm 3 m/S 670 mmHg 34%
06:00 +17°C° 0 mm 3 m/S 671 mmHg 34%
07:00 +18°C° 0 mm 3 m/S 672 mmHg 34%
08:00 +21°C° 0 mm 4 m/S 672 mmHg 28%
09:00 +25°C° 0 mm 4 m/S 673 mmHg 23%
10:00 +29°C° 0 mm 5 m/S 674 mmHg 17%
11:00 +30°C° 0 mm 5 m/S 673 mmHg 16%
12:00 +32°C° 0 mm 4 m/S 673 mmHg 15%
13:00 +34°C° 0 mm 4 m/S 672 mmHg 13%
14:00 +33°C° 0 mm 4 m/S 672 mmHg 14%
15:00 +33°C° 0 mm 3 m/S 671 mmHg 14%
16:00 +33°C° 0 mm 3 m/S 671 mmHg 14%
17:00 +29°C° 0 mm 3 m/S 671 mmHg 17%
18:00 +26°C° 0 mm 2 m/S 671 mmHg 21%
19:00 +23°C° 0 mm 2 m/S 671 mmHg 24%
20:00 +21°C° 0 mm 2 m/S 671 mmHg 24%
21:00 +20°C° 0 mm 2 m/S 671 mmHg 24%
22:00 +19°C° 0 mm 2 m/S 671 mmHg 25%
23:00 +19°C° 0 mm 3 m/S 671 mmHg 26%
Mehr zeigen